| time (UTC) | temp F | wind direction | speed MPH | gust MPH | rain 1hr in | rain 24hr in | rain mn in | humidity % | barometer mb |
| 20260502210052 | 71 | 11 | 4.0 | 11.0 | 0.00 | 0.00 | 0.00 | 30 | 1015.5 |
| 20260502205550 | 71 | 5 | 4.0 | 13.0 | 0.00 | 0.00 | 0.00 | 29 | 1015.6 |
| 20260502205050 | 71 | 50 | 3.0 | 13.0 | 0.00 | 0.00 | 0.00 | 30 | 1015.6 |
| 20260502204607 | 72 | 44 | 7.0 | 13.0 | 0.00 | 0.00 | 0.00 | 28 | 1015.6 |
| 20260502204050 | 72 | 18 | 4.0 | 10.0 | 0.00 | 0.00 | 0.00 | 28 | 1015.6 |
| 20260502203550 | 72 | 343 | 3.0 | 13.0 | 0.00 | 0.00 | 0.00 | 30 | 1015.6 |
| 20260502203059 | 72 | 350 | 5.0 | 13.0 | 0.00 | 0.00 | 0.00 | 29 | 1015.7 |
| 20260502202550 | 72 | 310 | 5.0 | 13.0 | 0.00 | 0.00 | 0.00 | 29 | 1015.7 |
| 20260502202051 | 71 | 335 | 2.0 | 11.0 | 0.00 | 0.00 | 0.00 | 28 | 1015.7 |
| 20260502201552 | 71 | 346 | 5.0 | 11.0 | 0.00 | 0.00 | 0.00 | 29 | 1015.7 |
| 20260502201051 | 71 | 67 | 5.0 | 11.0 | 0.00 | 0.00 | 0.00 | 29 | 1015.7 |
| 20260502200551 | 71 | 57 | 4.0 | 9.0 | 0.00 | 0.00 | 0.00 | 26 | 1015.7 |
| 20260502200057 | 71 | 17 | 3.0 | 9.0 | 0.00 | 0.00 | 0.00 | 29 | 1015.7 |
| 20260502195626 | 71 | 30 | 2.0 | 10.0 | 0.00 | 0.00 | 0.00 | 28 | 1015.8 |
| 20260502195050 | 72 | 67 | 3.0 | 10.0 | 0.00 | 0.00 | 0.00 | 26 | 1015.9 |
| 20260502194555 | 71 | 325 | 2.0 | 7.0 | 0.00 | 0.00 | 0.00 | 28 | 1016.0 |
| 20260502194052 | 70 | 19 | 3.0 | 12.0 | 0.00 | 0.00 | 0.00 | 28 | 1015.9 |
| 20260502193551 | 71 | 71 | 3.0 | 12.0 | 0.00 | 0.00 | 0.00 | 27 | 1015.9 |
| 20260502193055 | 71 | 55 | 3.0 | 10.0 | 0.00 | 0.00 | 0.00 | 28 | 1016.0 |
| 20260502192551 | 71 | 346 | 5.0 | 10.0 | 0.00 | 0.00 | 0.00 | 28 | 1016.0 |
| 20260502192050 | 71 | 11 | 6.0 | 11.0 | 0.00 | 0.00 | 0.00 | 30 | 1016.1 |
| 20260502191603 | 71 | 27 | 4.0 | 11.0 | 0.00 | 0.00 | 0.00 | 32 | 1016.1 |
| 20260502191053 | 72 | 52 | 6.0 | 11.0 | 0.00 | 0.00 | 0.00 | 27 | 1016.1 |
| 20260502190551 | 72 | 333 | 2.0 | 7.0 | 0.00 | 0.00 | 0.00 | 26 | 1016.2 |
| 20260502190056 | 73 | 0 | 1.0 | 10.0 | 0.00 | 0.00 | 0.00 | 24 | 1016.3 |
| 20260502185553 | 73 | 319 | 5.0 | 11.0 | 0.00 | 0.00 | 0.00 | 25 | 1016.4 |
| 20260502185050 | 73 | 54 | 4.0 | 11.0 | 0.00 | 0.00 | 0.00 | 25 | 1016.3 |
| 20260502184555 | 73 | 324 | 6.0 | 11.0 | 0.00 | 0.00 | 0.00 | 24 | 1016.3 |
| 20260502184051 | 73 | 74 | 1.0 | 10.0 | 0.00 | 0.00 | 0.00 | 27 | 1016.2 |
| 20260502183551 | 72 | 343 | 3.0 | 10.0 | 0.00 | 0.00 | 0.00 | 26 | 1016.3 |
| 20260502183100 | 73 | 9 | 2.0 | 8.0 | 0.00 | 0.00 | 0.00 | 26 | 1016.4 |
| 20260502182551 | 73 | 5 | 2.0 | 14.0 | 0.00 | 0.00 | 0.00 | 29 | 1016.3 |
| 20260502182050 | 72 | 5 | 1.0 | 14.0 | 0.00 | 0.00 | 0.00 | 27 | 1016.4 |
| 20260502181603 | 72 | 318 | 4.0 | 14.0 | 0.00 | 0.00 | 0.00 | 28 | 1016.5 |
| 20260502181051 | 72 | 327 | 3.0 | 6.0 | 0.00 | 0.00 | 0.00 | 26 | 1016.4 |
| 20260502180551 | 72 | 263 | 1.0 | 6.0 | 0.00 | 0.00 | 0.00 | 25 | 1016.5 |
| 20260502164049 | 67 | 197 | 3.0 | 10.0 | 0.00 | 0.00 | 0.00 | 24 | 1016.9 |
| 20260502163552 | 67 | 196 | 5.0 | 10.0 | 0.00 | 0.00 | 0.00 | 24 | 1016.9 |
| 20260502163108 | 67 | 225 | 3.0 | 8.0 | 0.00 | 0.00 | 0.00 | 25 | 1016.8 |
| 20260502162552 | 67 | 243 | 4.0 | 8.0 | 0.00 | 0.00 | 0.00 | 24 | 1016.8 |
| 20260502162052 | 66 | 236 | 2.0 | 10.0 | 0.00 | 0.00 | 0.00 | 26 | 1017.0 |
| 20260502161559 | 65 | 231 | 3.0 | 10.0 | 0.00 | 0.00 | 0.00 | 25 | 1017.0 |
| 20260502161051 | 65 | 207 | 4.0 | 11.0 | 0.00 | 0.00 | 0.00 | 25 | 1017.0 |
| 20260502160550 | 65 | 231 | 5.0 | 11.0 | 0.00 | 0.00 | 0.00 | 26 | 1017.0 |
| 20260502152052 | 61 | 219 | 3.0 | 8.0 | 0.00 | 0.00 | 0.00 | 31 | 1017.2 |
| 20260502151557 | 60 | 212 | 2.0 | 6.0 | 0.00 | 0.00 | 0.00 | 31 | 1017.1 |
| 20260502151051 | 58 | 0 | 2.0 | 6.0 | 0.00 | 0.00 | 0.00 | 36 | 1017.3 |
| 20260502150549 | 56 | 175 | 2.0 | 6.0 | 0.00 | 0.00 | 0.00 | 43 | 1017.2 |
| 20260502150105 | 56 | 96 | 2.0 | 6.0 | 0.00 | 0.00 | 0.00 | 45 | 1017.2 |
| 20260502130551 | 49 | 0 | 0.0 | 2.0 | 0.00 | 0.00 | 0.00 | 47 | 1016.7 |
| 20260502130108 | 49 | 0 | 0.0 | 2.0 | 0.00 | 0.00 | 0.00 | 45 | 1016.7 |
| 20260502123550 | 49 | 0 | 0.0 | 4.0 | 0.00 | 0.00 | 0.00 | 40 | 1016.4 |
| 20260502123100 | 49 | 149 | 0.0 | 4.0 | 0.00 | 0.00 | 0.00 | 40 | 1016.5 |
| 20260502122550 | 48 | 0 | 0.0 | 3.0 | 0.00 | 0.00 | 0.00 | 42 | 1016.4 |
| 20260502122051 | 48 | 0 | 0.0 | 3.0 | 0.00 | 0.00 | 0.00 | 44 | 1016.3 |
| 20260502121549 | 48 | 0 | 0.0 | 3.0 | 0.00 | 0.00 | 0.00 | 46 | 1016.3 |
| 20260502121050 | 48 | 248 | 0.0 | 1.0 | 0.00 | 0.00 | 0.00 | 46 | 1016.3 |
| 20260502120549 | 48 | 0 | 0.0 | 1.0 | 0.00 | 0.00 | 0.00 | 42 | 1016.4 |
| 20260502115549 | 47 | 0 | 0.0 | 7.0 | 0.00 | 0.00 | 0.00 | 44 | 1016.4 |
| 20260502115052 | 46 | 292 | 0.0 | 7.0 | 0.00 | 0.00 | 0.00 | 46 | 1016.4 |
| 20260502114605 | 45 | 309 | 2.0 | 5.0 | 0.00 | 0.00 | 0.00 | 48 | 1016.5 |
| 20260502114051 | 44 | 332 | 2.0 | 5.0 | 0.00 | 0.00 | 0.00 | 53 | 1016.4 |
| 20260502113551 | 43 | 0 | 0.0 | 5.0 | 0.00 | 0.00 | 0.00 | 56 | 1016.3 |
| 20260502113053 | 41 | 317 | 1.0 | 5.0 | 0.00 | 0.00 | 0.00 | 57 | 1016.4 |
| 20260502112550 | 40 | 0 | 2.0 | 5.0 | 0.00 | 0.00 | 0.00 | 62 | 1016.3 |
| 20260502112050 | 41 | 327 | 0.0 | 3.0 | 0.00 | 0.00 | 0.00 | 63 | 1016.0 |
| 20260502111557 | 41 | 0 | 0.0 | 0.0 | 0.00 | 0.00 | 0.00 | 66 | 1016.0 |
| 20260502111053 | 41 | 0 | 0.0 | 0.0 | 0.00 | 0.00 | 0.00 | 64 | 1016.0 |
| 20260502110551 | 41 | 0 | 0.0 | 0.0 | 0.00 | 0.00 | 0.00 | 60 | 1016.0 |
| 20260502110055 | 41 | 0 | 0.0 | 0.0 | 0.00 | 0.00 | 0.00 | 60 | 1015.9 |
| 20260502105553 | 41 | 0 | 0.0 | 1.0 | 0.00 | 0.00 | 0.00 | 59 | 1015.9 |
| 20260502105050 | 41 | 0 | 0.0 | 1.0 | 0.00 | 0.00 | 0.00 | 61 | 1015.9 |
| 20260502104552 | 42 | 0 | 0.0 | 3.0 | 0.00 | 0.00 | 0.00 | 61 | 1015.9 |
| 20260502104049 | 42 | 0 | 0.0 | 3.0 | 0.00 | 0.00 | 0.00 | 63 | 1015.9 |
| 20260502103549 | 42 | 117 | 1.0 | 3.0 | 0.00 | 0.00 | 0.00 | 61 | 1015.8 |
| 20260502103051 | 43 | 0 | 0.0 | 3.0 | 0.00 | 0.00 | 0.00 | 58 | 1015.8 |
| 20260502102553 | 43 | 117 | 0.0 | 3.0 | 0.00 | 0.00 | 0.00 | 57 | 1015.8 |
| 20260502102049 | 43 | 117 | 1.0 | 6.0 | 0.00 | 0.00 | 0.00 | 56 | 1015.8 |
| 20260502101552 | 44 | 117 | 1.0 | 6.0 | 0.00 | 0.00 | 0.00 | 52 | 1015.7 |
| 20260502101049 | 45 | 111 | 1.0 | 3.0 | 0.00 | 0.00 | 0.00 | 51 | 1015.8 |
| 20260502100552 | 47 | 113 | 1.0 | 3.0 | 0.00 | 0.00 | 0.00 | 46 | 1015.7 |
| 20260502091054 | 47 | 0 | 0.0 | 0.0 | 0.00 | 0.00 | 0.00 | 48 | 1015.7 |
| 20260502090549 | 47 | 0 | 0.0 | 0.0 | 0.00 | 0.00 | 0.00 | 48 | 1015.7 |
| 20260502080106 | 40 | 0 | 0.0 | 0.0 | 0.00 | 0.00 | 0.00 | 61 | 1015.8 |
| 20260502071051 | 40 | 0 | 0.0 | 1.0 | 0.00 | 0.00 | 0.00 | 65 | 1016.3 |
| 20260502070551 | 40 | 0 | 0.0 | 1.0 | 0.00 | 0.00 | 0.00 | 65 | 1016.3 |
| 20260502070054 | 40 | 0 | 0.0 | 1.0 | 0.00 | 0.00 | 0.00 | 65 | 1016.3 |
| 20260502065551 | 40 | 0 | 0.0 | 1.0 | 0.00 | 0.00 | 0.00 | 64 | 1016.2 |
| 20260502065050 | 40 | 0 | 0.0 | 2.0 | 0.00 | 0.00 | 0.00 | 65 | 1016.2 |
| 20260502064600 | 40 | 0 | 0.0 | 2.0 | 0.00 | 0.00 | 0.00 | 63 | 1016.2 |
| 20260502064050 | 41 | 323 | 0.0 | 2.0 | 0.00 | 0.00 | 0.00 | 64 | 1016.2 |
| 20260502063551 | 41 | 0 | 0.0 | 0.0 | 0.00 | 0.00 | 0.00 | 64 | 1016.2 |
| 20260502063122 | 41 | 0 | 0.0 | 0.0 | 0.00 | 0.00 | 0.00 | 63 | 1016.3 |
| 20260502062552 | 41 | 0 | 0.0 | 0.0 | 0.00 | 0.00 | 0.00 | 63 | 1016.3 |
| 20260502062050 | 41 | 0 | 0.0 | 0.0 | 0.00 | 0.00 | 0.00 | 63 | 1016.3 |
| 20260502061559 | 41 | 0 | 0.0 | 0.0 | 0.00 | 0.00 | 0.00 | 61 | 1016.3 |
| 20260502061051 | 41 | 0 | 0.0 | 0.0 | 0.00 | 0.00 | 0.00 | 62 | 1016.2 |
| 20260502060550 | 42 | 0 | 0.0 | 0.0 | 0.00 | 0.00 | 0.00 | 63 | 1016.2 |
| 20260502060058 | 42 | 0 | 0.0 | 0.0 | 0.00 | 0.00 | 0.00 | 63 | 1016.2 |
| 20260502055551 | 42 | 0 | 0.0 | 0.0 | 0.00 | 0.00 | 0.00 | 63 | 1016.2 |
| 20260502055051 | 42 | 0 | 0.0 | 0.0 | 0.00 | 0.00 | 0.00 | 63 | 1016.1 |
| 20260502054606 | 42 | 0 | 0.0 | 0.0 | 0.00 | 0.00 | 0.00 | 61 | 1016.2 |
| 20260502054051 | 42 | 0 | 0.0 | 0.0 | 0.00 | 0.00 | 0.00 | 62 | 1016.2 |
| 20260502053551 | 42 | 0 | 0.0 | 1.0 | 0.00 | 0.00 | 0.00 | 61 | 1016.1 |
| 20260502053103 | 43 | 0 | 0.0 | 1.0 | 0.00 | 0.00 | 0.00 | 62 | 1016.1 |
| 20260502052553 | 43 | 0 | 0.0 | 1.0 | 0.00 | 0.00 | 0.00 | 62 | 1016.1 |
| 20260502052052 | 43 | 0 | 0.0 | 1.0 | 0.00 | 0.00 | 0.00 | 62 | 1016.1 |
| 20260502051554 | 43 | 0 | 0.0 | 1.0 | 0.00 | 0.00 | 0.00 | 61 | 1016.0 |
| 20260502051050 | 43 | 0 | 0.0 | 1.0 | 0.00 | 0.00 | 0.00 | 61 | 1016.0 |
| 20260502050550 | 43 | 0 | 0.0 | 1.0 | 0.00 | 0.00 | 0.00 | 61 | 1016.0 |
| 20260502050058 | 43 | 0 | 0.0 | 1.0 | 0.00 | 0.00 | 0.00 | 61 | 1016.0 |
| 20260502045551 | 44 | 0 | 0.0 | 0.0 | 0.00 | 0.00 | 0.00 | 60 | 1016.0 |
| 20260502045050 | 44 | 0 | 0.0 | 1.0 | 0.00 | 0.00 | 0.00 | 60 | 1016.0 |
| 20260502044556 | 44 | 0 | 0.0 | 1.0 | 0.00 | 0.00 | 0.00 | 61 | 1015.9 |
| 20260502044053 | 44 | 0 | 0.0 | 3.0 | 0.00 | 0.00 | 0.00 | 59 | 1015.9 |
| 20260502043550 | 44 | 0 | 0.0 | 3.0 | 0.00 | 0.00 | 0.00 | 59 | 1015.8 |
| 20260502043056 | 44 | 0 | 0.0 | 3.0 | 0.00 | 0.00 | 0.00 | 59 | 1015.9 |
| 20260502042551 | 45 | 0 | 0.0 | 4.0 | 0.00 | 0.00 | 0.00 | 60 | 1015.8 |
| 20260502042052 | 45 | 0 | 0.0 | 4.0 | 0.00 | 0.00 | 0.00 | 58 | 1015.9 |
| 20260502041557 | 46 | 314 | 1.0 | 4.0 | 0.00 | 0.00 | 0.00 | 57 | 1015.9 |
| 20260502041050 | 46 | 0 | 0.0 | 3.0 | 0.00 | 0.00 | 0.00 | 57 | 1016.0 |
| 20260502040551 | 47 | 0 | 0.0 | 3.0 | 0.00 | 0.00 | 0.00 | 57 | 1016.1 |
| 20260502040058 | 47 | 316 | 1.0 | 3.0 | 0.00 | 0.00 | 0.00 | 55 | 1016.1 |
| 20260502035550 | 47 | 322 | 0.0 | 3.0 | 0.00 | 0.00 | 0.00 | 56 | 1016.0 |
| 20260502035051 | 48 | 342 | 0.0 | 3.0 | 0.00 | 0.00 | 0.00 | 54 | 1016.0 |
| 20260502034556 | 48 | 0 | 1.0 | 3.0 | 0.00 | 0.00 | 0.00 | 52 | 1016.0 |
| 20260502034051 | 49 | 0 | 1.0 | 3.0 | 0.00 | 0.00 | 0.00 | 53 | 1016.0 |
| 20260502033550 | 49 | 320 | 1.0 | 3.0 | 0.00 | 0.00 | 0.00 | 52 | 1016.0 |
| 20260502033055 | 49 | 0 | 0.0 | 3.0 | 0.00 | 0.00 | 0.00 | 52 | 1016.1 |
| 20260502032552 | 49 | 0 | 1.0 | 3.0 | 0.00 | 0.00 | 0.00 | 52 | 1016.0 |
| 20260502032050 | 50 | 0 | 0.0 | 2.0 | 0.00 | 0.00 | 0.00 | 54 | 1016.0 |
| 20260502031552 | 50 | 320 | 1.0 | 2.0 | 0.00 | 0.00 | 0.00 | 52 | 1016.0 |
| 20260502031049 | 51 | 0 | 0.0 | 2.0 | 0.00 | 0.00 | 0.00 | 51 | 1015.8 |
| 20260502030551 | 52 | 320 | 1.0 | 2.0 | 0.00 | 0.00 | 0.00 | 50 | 1015.7 |
| 20260502030054 | 52 | 0 | 0.0 | 0.0 | 0.00 | 0.00 | 0.00 | 54 | 1015.7 |
| 20260502025552 | 52 | 0 | 0.0 | 0.0 | 0.00 | 0.00 | 0.00 | 47 | 1015.6 |
| 20260502025056 | 54 | 0 | 0.0 | 0.0 | 0.00 | 0.00 | 0.00 | 47 | 1015.5 |
| 20260502024603 | 55 | 0 | 0.0 | 0.0 | 0.00 | 0.00 | 0.00 | 44 | 1015.5 |
| 20260502024051 | 57 | 0 | 0.0 | 0.0 | 0.00 | 0.00 | 0.00 | 42 | 1015.5 |
| 20260502023551 | 58 | 0 | 0.0 | 0.0 | 0.00 | 0.00 | 0.00 | 41 | 1015.6 |
| 20260502023052 | 59 | 0 | 0.0 | 0.0 | 0.00 | 0.00 | 0.00 | 39 | 1015.5 |
| 20260502022550 | 61 | 0 | 0.0 | 0.0 | 0.00 | 0.00 | 0.00 | 38 | 1015.5 |
| 20260502022053 | 62 | 0 | 0.0 | 0.0 | 0.00 | 0.00 | 0.00 | 36 | 1015.6 |
| 20260502021554 | 64 | 0 | 0.0 | 0.0 | 0.00 | 0.00 | 0.00 | 34 | 1015.6 |
| 20260502021051 | 66 | 0 | 0.0 | 0.0 | 0.00 | 0.00 | 0.00 | 32 | 1015.7 |
| 20260502020552 | 68 | 0 | 0.0 | 0.0 | 0.00 | 0.00 | 0.00 | 31 | 1015.7 |
| 20260502020053 | 69 | 0 | 0.0 | 0.0 | 0.00 | 0.00 | 0.00 | 30 | 1015.8 |
| 20260502015551 | 69 | 0 | 0.0 | 0.0 | 0.00 | 0.00 | 0.00 | 25 | 1015.7 |
| 20260502015050 | 69 | 0 | 0.0 | 1.0 | 0.00 | 0.00 | 0.00 | 24 | 1015.7 |
| 20260502014553 | 70 | 0 | 0.0 | 1.0 | 0.00 | 0.00 | 0.00 | 29 | 1015.6 |
| 20260502014050 | 71 | 0 | 0.0 | 2.0 | 0.00 | 0.00 | 0.00 | 27 | 1015.6 |
| 20260502013553 | 72 | 0 | 0.0 | 2.0 | 0.00 | 0.00 | 0.00 | 21 | 1015.6 |
| 20260502013051 | 72 | 0 | 1.0 | 2.0 | 0.00 | 0.00 | 0.00 | 22 | 1015.6 |
| 20260502012553 | 73 | 0 | 0.0 | 2.0 | 0.00 | 0.00 | 0.00 | 21 | 1015.6 |
| 20260502012051 | 73 | 0 | 0.0 | 2.0 | 0.00 | 0.00 | 0.00 | 22 | 1015.7 |
| 20260502011550 | 72 | 0 | 0.0 | 2.0 | 0.00 | 0.00 | 0.00 | 20 | 1015.6 |
| 20260502011050 | 72 | 0 | 0.0 | 4.0 | 0.00 | 0.00 | 0.00 | 18 | 1015.7 |
| 20260502010552 | 72 | 321 | 1.0 | 4.0 | 0.00 | 0.00 | 0.00 | 20 | 1015.7 |
| 20260502010054 | 72 | 263 | 1.0 | 4.0 | 0.00 | 0.00 | 0.00 | 19 | 1015.8 |
| 20260502005551 | 72 | 242 | 1.0 | 5.0 | 0.00 | 0.00 | 0.00 | 19 | 1015.9 |
| 20260502005051 | 72 | 293 | 0.0 | 6.0 | 0.00 | 0.00 | 0.00 | 19 | 1015.9 |
| 20260502004553 | 72 | 267 | 3.0 | 8.0 | 0.00 | 0.00 | 0.00 | 18 | 1015.9 |
| 20260502004051 | 72 | 230 | 4.0 | 8.0 | 0.00 | 0.00 | 0.00 | 18 | 1016.0 |
| 20260502003550 | 72 | 250 | 1.0 | 9.0 | 0.00 | 0.00 | 0.00 | 18 | 1015.9 |
| 20260502003056 | 72 | 208 | 4.0 | 9.0 | 0.00 | 0.00 | 0.00 | 18 | 1016.0 |
| 20260502002550 | 72 | 227 | 3.0 | 6.0 | 0.00 | 0.00 | 0.00 | 17 | 1016.0 |
| 20260502002051 | 73 | 196 | 2.0 | 8.0 | 0.00 | 0.00 | 0.00 | 17 | 1016.0 |
| 20260502001558 | 73 | 212 | 2.0 | 8.0 | 0.00 | 0.00 | 0.00 | 18 | 1016.0 |
| 20260502001053 | 73 | 224 | 3.0 | 8.0 | 0.00 | 0.00 | 0.00 | 17 | 1016.0 |
| 20260502000551 | 73 | 336 | 1.0 | 5.0 | 0.00 | 0.00 | 0.00 | 18 | 1016.1 |
| 20260502000105 | 74 | 78 | 1.0 | 4.0 | 0.00 | 0.00 | 0.00 | 18 | 1016.0 |
| 20260501235551 | 73 | 294 | 0.0 | 6.0 | 0.00 | 0.00 | 0.00 | 18 | 1016.1 |
| 20260501235054 | 73 | 306 | 1.0 | 8.0 | 0.00 | 0.00 | 0.00 | 18 | 1016.2 |
| 20260501234556 | 73 | 285 | 2.0 | 8.0 | 0.00 | 0.00 | 0.00 | 19 | 1016.2 |
| 20260501234051 | 73 | 250 | 4.0 | 8.0 | 0.00 | 0.00 | 0.00 | 17 | 1016.3 |
| 20260501233551 | 74 | 260 | 1.0 | 6.0 | 0.00 | 0.00 | 0.00 | 18 | 1016.2 |
| 20260501233059 | 74 | 141 | 1.0 | 6.0 | 0.00 | 0.00 | 0.00 | 18 | 1016.3 |
| 20260501232551 | 74 | 213 | 1.0 | 6.0 | 0.00 | 0.00 | 0.00 | 18 | 1016.2 |
| 20260501232050 | 73 | 0 | 3.0 | 8.0 | 0.00 | 0.00 | 0.00 | 18 | 1016.3 |
| 20260501231634 | 73 | 0 | 3.0 | 8.0 | 0.00 | 0.00 | 0.00 | 18 | 1016.3 |
| 20260501231053 | 74 | 191 | 2.0 | 7.0 | 0.00 | 0.00 | 0.00 | 18 | 1016.3 |
| 20260501230550 | 74 | 0 | 1.0 | 7.0 | 0.00 | 0.00 | 0.00 | 19 | 1016.3 |
| 20260501230101 | 73 | 0 | 0.0 | 8.0 | 0.00 | 0.00 | 0.00 | 16 | 1016.3 |
| 20260501225554 | 73 | 321 | 3.0 | 8.0 | 0.00 | 0.00 | 0.00 | 17 | 1016.3 |
| 20260501225050 | 73 | 345 | 1.0 | 7.0 | 0.00 | 0.00 | 0.00 | 17 | 1016.3 |
| 20260501224611 | 73 | 195 | 3.0 | 7.0 | 0.00 | 0.00 | 0.00 | 19 | 1016.4 |
| 20260501224052 | 73 | 288 | 2.0 | 9.0 | 0.00 | 0.00 | 0.00 | 19 | 1016.4 |
| 20260501223551 | 73 | 345 | 1.0 | 11.0 | 0.00 | 0.00 | 0.00 | 20 | 1016.3 |
| 20260501223100 | 73 | 253 | 5.0 | 11.0 | 0.00 | 0.00 | 0.00 | 20 | 1016.4 |
| 20260501222552 | 73 | 306 | 5.0 | 11.0 | 0.00 | 0.00 | 0.00 | 18 | 1016.4 |
| 20260501222051 | 73 | 0 | 2.0 | 6.0 | 0.00 | 0.00 | 0.00 | 16 | 1016.4 |
| 20260501221607 | 73 | 277 | 0.0 | 4.0 | 0.00 | 0.00 | 0.00 | 19 | 1016.5 |
| 20260501221050 | 73 | 57 | 1.0 | 5.0 | 0.00 | 0.00 | 0.00 | 18 | 1016.6 |
| 20260501220550 | 73 | 0 | 2.0 | 9.0 | 0.00 | 0.00 | 0.00 | 18 | 1016.6 |
| 20260501220052 | 73 | 304 | 3.0 | 9.0 | 0.00 | 0.00 | 0.00 | 19 | 1016.7 |
| 20260501215550 | 73 | 348 | 1.0 | 5.0 | 0.00 | 0.00 | 0.00 | 20 | 1016.7 |
| 20260501215051 | 73 | 122 | 1.0 | 8.0 | 0.00 | 0.00 | 0.00 | 21 | 1016.7 |
| 20260501214555 | 72 | 296 | 3.0 | 10.0 | 0.00 | 0.00 | 0.00 | 19 | 1016.8 |
| 20260501214051 | 72 | 324 | 2.0 | 14.0 | 0.00 | 0.00 | 0.00 | 21 | 1016.9 |
| 20260501213551 | 72 | 254 | 5.0 | 14.0 | 0.00 | 0.00 | 0.00 | 18 | 1016.9 |
| 20260501213054 | 71 | 299 | 8.0 | 14.0 | 0.00 | 0.00 | 0.00 | 18 | 1016.9 |
| 20260501212551 | 71 | 259 | 7.0 | 13.0 | 0.00 | 0.00 | 0.00 | 19 | 1017.0 |
| 20260501212051 | 72 | 261 | 5.0 | 11.0 | 0.00 | 0.00 | 0.00 | 17 | 1017.0 |
| 20260501211609 | 71 | 245 | 2.0 | 8.0 | 0.00 | 0.00 | 0.00 | 22 | 1017.1 |
| 20260501211050 | 71 | 0 | 1.0 | 8.0 | 0.00 | 0.00 | 0.00 | 21 | 1017.1 |
| 20260501210550 | 71 | 231 | 3.0 | 8.0 | 0.00 | 0.00 | 0.00 | 21 | 1017.2 |